Starlink 32506

operational
NORAD ID: 62167 Int'l Des: 2024-225 Owner: SPXS Country: US Constellation: starlink
LEOCIRCULAR

About Starlink 32506

Description loading...

Live Position

Loading 3D Globe...

Upcoming Passes

Altitude History

Altitude vs Time

uPlot chart will show altitude changes over time

Two-Line Element Set

1 62167U 24225E 25257.39692086 .00457374 00000-0 34977-1 0 9992
2 62167 70.0046 249.1296 0010747 271.0563 88.9366 14.99699820 43461
Epoch: Sep 14, 2025 • Age: 24 hours

Current Status

Altitude 575.6 km
Velocity 7.57 km/s
Sub-Earth Point 40.59°N, 124.17°E
Launch Date Nov 30, 2024
Age 0.7 years
Type internet

Technical Details

Classification Payload
Mass 730.00 kg
Dry Mass 700.00 kg
Total Mass 730.00 kg
Length 0.30 m
Diameter 4.10 m
Span 29.00 m
Shape Box + pan
Manufacturer SPXS
Bus Type Starlink V2M
Phase Status In Orbit
Owner/State SPXS/US

Large Constellations

Loading constellations...